This is the latest recevied weather packets stored in our database for station/object KO6MEX-13. If no packets are shown the sender has not sent any weather packets the latest 10 day(s).
| Time | Temp. | Humidity | Pressure | Rain* | Wind** | Luminosity | Snow |
|---|---|---|---|---|---|---|---|
| 1777774313 | 15° C | 76% | 1015 hPa | 0 mm | - | 25 W/m² | - |
| 1777774011 | 15° C | 75% | 1014.9 hPa | 0 mm | - | 29 W/m² | - |
| 1777773708 | 15° C | 74% | 1014.9 hPa | 0 mm | - | 32 W/m² | - |
| 1777773404 | 15° C | 74% | 1015 hPa | 0 mm | - | 35 W/m² | - |
| 1777773102 | 15° C | 73% | 1014.9 hPa | 0 mm | - | 38 W/m² | - |
| 1777772797 | 15° C | 72% | 1014.9 hPa | 0 mm | - | 41 W/m² | - |
| 1777772495 | 15.56° C | 70% | 1015.1 hPa | 0 mm | - | 44 W/m² | - |
| 1777772192 | 15.56° C | 70% | 1014.9 hPa | 0 mm | - | 51 W/m² | - |
| 1777771890 | 16.11° C | 69% | 1014.9 hPa | 0 mm | - | 108 W/m² | - |
| 1777771587 | 16.11° C | 69% | 1015.1 hPa | 0 mm | - | 139 W/m² | - |
| 1777771284 | 16.11° C | 68% | 1015.2 hPa | 0 mm | - | 152 W/m² | - |
| 1777770980 | 16.11° C | 69% | 1015.1 hPa | 0 mm | - | 163 W/m² | - |
| 1777770678 | 16.67° C | 68% | 1015 hPa | 0 mm | - | 194 W/m² | - |
| 1777770374 | 17.22° C | 66% | 1015.1 hPa | 0 mm | - | 68 W/m² | - |
| 1777770071 | 16.67° C | 67% | 1015.2 hPa | 0 mm | - | 221 W/m² | - |
| 1777769768 | 17.22° C | 65% | 1015.2 hPa | 0 mm | - | 242 W/m² | - |
| 1777769466 | 16.67° C | 66% | 1015.2 hPa | 0 mm | - | 259 W/m² | - |
| 1777769161 | 16.67° C | 67% | 1015.3 hPa | 0 mm | - | 275 W/m² | - |
| 1777768860 | 16.67° C | 66% | 1015.1 hPa | 0 mm | - | 302 W/m² | - |
| 1777768556 | 17.22° C | 65% | 1015 hPa | 0 mm | - | 291 W/m² | - |
| 1777768253 | 16.67° C | 66% | 1015.4 hPa | 0 mm | - | 317 W/m² | - |
| 1777767950 | 17.22° C | 66% | 1015 hPa | 0 mm | - | 335 W/m² | - |
| 1777767647 | 17.22° C | 65% | 1015.2 hPa | 0 mm | - | 323 W/m² | - |
| 1777767343 | 17.22° C | 66% | 1015 hPa | 0 mm | - | 362 W/m² | - |
| 1777767041 | 17.78° C | 64% | 1015 hPa | 0 mm | - | 373 W/m² | - |
* Rain latest hour (hover to see other rain measurements)
** Current wind speed in m/s (hover to see current wind gust speed)